| time (UTC) | temp C | wind direction | speed KPH | gust KPH | rain 1hr cm | rain 24hr cm | rain mn cm | humidity % | barometer mb |
| 20260505041401 | 18 | 0 | 14.5 | 32.2 | 0.00 | 0.00 | 0.00 | 64 | 1003.3 |
| 20260505040901 | 19 | 0 | 11.3 | 22.5 | 0.00 | 0.00 | 0.00 | 62 | 1003.1 |
| 20260505035901 | 19 | 0 | 16.1 | 24.1 | 0.00 | 0.00 | 0.00 | 62 | 1002.6 |
| 20260505034401 | 19 | 0 | 16.1 | 29.0 | 0.00 | 0.00 | 0.00 | 62 | 1001.8 |
| 20260505033901 | 19 | 0 | 17.7 | 24.1 | 0.00 | 0.00 | 0.00 | 62 | 1001.8 |
| 20260505033402 | 19 | 0 | 12.9 | 22.5 | 0.00 | 0.00 | 0.00 | 62 | 1001.8 |
| 20260505032902 | 19 | 0 | 16.1 | 32.2 | 0.00 | 0.00 | 0.00 | 62 | 1001.8 |
| 20260505032401 | 19 | 5 | 16.1 | 27.4 | 0.00 | 0.00 | 0.00 | 63 | 1001.9 |
| 20260505031401 | 20 | 0 | 14.5 | 24.1 | 0.00 | 0.00 | 0.00 | 61 | 1002.1 |
| 20260505030901 | 20 | 0 | 19.3 | 29.0 | 0.00 | 0.00 | 0.00 | 61 | 1002.0 |
| 20260505030401 | 20 | 0 | 14.5 | 20.9 | 0.00 | 0.00 | 0.00 | 62 | 1002.0 |
| 20260505025901 | 19 | 0 | 14.5 | 22.5 | 0.00 | 0.00 | 0.00 | 62 | 1002.0 |
| 20260505025402 | 19 | 0 | 14.5 | 22.5 | 0.00 | 0.00 | 0.00 | 62 | 1002.0 |
| 20260505024902 | 19 | 0 | 12.9 | 20.9 | 0.00 | 0.00 | 0.00 | 62 | 1001.9 |
| 20260505023901 | 20 | 0 | 14.5 | 24.1 | 0.00 | 0.00 | 0.00 | 61 | 1002.1 |
| 20260505023401 | 20 | 0 | 12.9 | 22.5 | 0.00 | 0.00 | 0.00 | 61 | 1002.1 |
| 20260505022902 | 20 | 4 | 14.5 | 22.5 | 0.00 | 0.00 | 0.00 | 61 | 1002.2 |
| 20260505021902 | 20 | 0 | 16.1 | 19.3 | 0.00 | 0.00 | 0.00 | 60 | 1002.1 |
| 20260505021401 | 20 | 0 | 17.7 | 24.1 | 0.00 | 0.00 | 0.00 | 60 | 1002.1 |
| 20260505020901 | 20 | 0 | 14.5 | 19.3 | 0.00 | 0.00 | 0.00 | 61 | 1002.1 |
| 20260505020402 | 20 | 0 | 14.5 | 20.9 | 0.00 | 0.00 | 0.00 | 60 | 1002.0 |
| 20260505015902 | 20 | 0 | 16.1 | 25.7 | 0.00 | 0.00 | 0.00 | 59 | 1001.9 |
| 20260505014402 | 20 | 0 | 14.5 | 20.9 | 0.00 | 0.00 | 0.00 | 58 | 1001.8 |
| 20260505013901 | 20 | 0 | 17.7 | 25.7 | 0.00 | 0.00 | 0.00 | 57 | 1001.7 |
| 20260505013402 | 20 | 0 | 17.7 | 24.1 | 0.00 | 0.00 | 0.00 | 57 | 1001.7 |
| 20260505012402 | 20 | 0 | 16.1 | 22.5 | 0.00 | 0.00 | 0.00 | 56 | 1001.7 |
| 20260505011901 | 21 | 0 | 19.3 | 25.7 | 0.00 | 0.00 | 0.00 | 55 | 1001.5 |
| 20260505011402 | 21 | 0 | 20.9 | 25.7 | 0.00 | 0.00 | 0.00 | 54 | 1001.5 |
| 20260505010902 | 21 | 0 | 19.3 | 25.7 | 0.00 | 0.00 | 0.00 | 55 | 1001.5 |
| 20260505010402 | 21 | 0 | 19.3 | 27.4 | 0.00 | 0.00 | 0.00 | 55 | 1001.5 |
| 20260505005902 | 21 | 8 | 17.7 | 25.7 | 0.00 | 0.00 | 0.00 | 54 | 1001.5 |
| 20260505005402 | 21 | 8 | 20.9 | 27.4 | 0.00 | 0.00 | 0.00 | 54 | 1001.5 |
| 20260505004902 | 21 | 5 | 16.1 | 24.1 | 0.00 | 0.00 | 0.00 | 55 | 1001.6 |
| 20260505003901 | 21 | 0 | 16.1 | 25.7 | 0.00 | 0.00 | 0.00 | 53 | 1001.6 |
| 20260505003402 | 21 | 0 | 16.1 | 25.7 | 0.00 | 0.00 | 0.00 | 53 | 1001.6 |
| 20260505002902 | 22 | 1 | 20.9 | 27.4 | 0.00 | 0.00 | 0.00 | 52 | 1001.5 |
| 20260505002402 | 22 | 0 | 27.4 | 35.4 | 0.00 | 0.00 | 0.00 | 51 | 1001.4 |
| 20260505001402 | 22 | 3 | 20.9 | 40.2 | 0.00 | 0.00 | 0.00 | 52 | 1001.4 |
| 20260505000902 | 22 | 339 | 22.5 | 32.2 | 0.00 | 0.00 | 0.00 | 52 | 1001.3 |
| 20260505000401 | 22 | 346 | 19.3 | 29.0 | 0.00 | 0.00 | 0.00 | 53 | 1001.3 |
| 20260504235402 | 22 | 351 | 20.9 | 24.1 | 0.00 | 0.00 | 0.00 | 59 | 1001.2 |
| 20260504234902 | 21 | 334 | 16.1 | 25.7 | 0.00 | 0.00 | 0.00 | 63 | 1001.2 |
| 20260504234402 | 21 | 350 | 19.3 | 27.4 | 0.00 | 0.00 | 0.00 | 64 | 1001.3 |
| 20260504233902 | 21 | 4 | 16.1 | 22.5 | 0.00 | 0.00 | 0.00 | 66 | 1001.4 |
| 20260504233401 | 21 | 2 | 16.1 | 20.9 | 0.00 | 0.00 | 0.00 | 66 | 1001.5 |
| 20260504232902 | 21 | 11 | 19.3 | 22.5 | 0.00 | 0.00 | 0.00 | 65 | 1001.7 |
| 20260504232402 | 21 | 10 | 19.3 | 24.1 | 0.00 | 0.00 | 0.00 | 65 | 1001.8 |
| 20260504231902 | 21 | 6 | 20.9 | 25.7 | 0.00 | 0.00 | 0.00 | 64 | 1001.9 |
| 20260504230902 | 21 | 3 | 22.5 | 32.2 | 0.00 | 0.00 | 0.00 | 63 | 1002.0 |
| 20260504230402 | 21 | 323 | 20.9 | 32.2 | 0.00 | 0.00 | 0.00 | 63 | 1002.0 |
| 20260504225901 | 21 | 10 | 19.3 | 33.8 | 0.00 | 0.00 | 0.00 | 64 | 1002.1 |
| 20260504225402 | 22 | 11 | 27.4 | 35.4 | 0.00 | 0.00 | 0.00 | 62 | 1002.2 |
| 20260504224902 | 22 | 296 | 27.4 | 35.4 | 0.00 | 0.00 | 0.00 | 62 | 1002.3 |
| 20260504224402 | 22 | 343 | 25.7 | 38.6 | 0.00 | 0.00 | 0.00 | 62 | 1002.4 |
| 20260504223902 | 22 | 233 | 27.4 | 38.6 | 0.00 | 0.00 | 0.00 | 62 | 1002.4 |
| 20260504223402 | 22 | 311 | 27.4 | 38.6 | 0.00 | 0.00 | 0.00 | 60 | 1002.6 |
| 20260504221902 | 22 | 2 | 22.5 | 33.8 | 0.00 | 0.00 | 0.00 | 60 | 1002.8 |
| 20260504220902 | 22 | 327 | 25.7 | 40.2 | 0.00 | 0.00 | 0.00 | 57 | 1002.7 |
| 20260504215902 | 22 | 345 | 27.4 | 40.2 | 0.00 | 0.00 | 0.00 | 55 | 1002.7 |
| 20260504215402 | 22 | 334 | 24.1 | 41.8 | 0.00 | 0.00 | 0.00 | 56 | 1002.8 |
| 20260504214402 | 22 | 304 | 29.0 | 45.1 | 0.00 | 0.00 | 0.00 | 56 | 1003.0 |
| 20260504213402 | 22 | 315 | 27.4 | 35.4 | 0.00 | 0.00 | 0.00 | 55 | 1003.1 |
| 20260504212902 | 22 | 351 | 32.2 | 48.3 | 0.00 | 0.00 | 0.00 | 54 | 1003.0 |
| 20260504212402 | 22 | 289 | 32.2 | 53.1 | 0.00 | 0.00 | 0.00 | 53 | 1003.0 |
| 20260504211902 | 22 | 330 | 25.7 | 46.7 | 0.00 | 0.00 | 0.00 | 53 | 1003.0 |
| 20260504211402 | 23 | 301 | 33.8 | 46.7 | 0.00 | 0.00 | 0.00 | 50 | 1003.0 |
| 20260504210902 | 23 | 351 | 30.6 | 46.7 | 0.00 | 0.00 | 0.00 | 51 | 1002.9 |
| 20260504205402 | 23 | 348 | 25.7 | 48.3 | 0.00 | 0.00 | 0.00 | 52 | 1002.9 |
| 20260504204903 | 23 | 303 | 29.0 | 48.3 | 0.00 | 0.00 | 0.00 | 51 | 1003.0 |
| 20260504204402 | 23 | 315 | 30.6 | 45.1 | 0.00 | 0.00 | 0.00 | 51 | 1003.0 |
| 20260504203902 | 23 | 321 | 29.0 | 45.1 | 0.00 | 0.00 | 0.00 | 53 | 1002.9 |
| 20260504202402 | 23 | 287 | 33.8 | 41.8 | 0.00 | 0.00 | 0.00 | 52 | 1003.1 |
| 20260504201903 | 23 | 319 | 33.8 | 41.8 | 0.00 | 0.00 | 0.00 | 51 | 1003.1 |
| 20260504200902 | 23 | 294 | 33.8 | 41.8 | 0.00 | 0.00 | 0.00 | 51 | 1003.0 |
| 20260504195903 | 23 | 256 | 29.0 | 41.8 | 0.00 | 0.00 | 0.00 | 51 | 1003.2 |
| 20260504195402 | 23 | 327 | 32.2 | 46.7 | 0.00 | 0.03 | 0.00 | 50 | 1003.2 |
| 20260504194902 | 23 | 297 | 25.7 | 41.8 | 0.00 | 0.05 | 0.00 | 52 | 1003.4 |
| 20260504193903 | 23 | 287 | 29.0 | 41.8 | 0.00 | 0.15 | 0.00 | 54 | 1003.6 |
| 20260504193402 | 22 | 333 | 29.0 | 38.6 | 0.00 | 0.18 | 0.00 | 53 | 1003.5 |
| 20260504192903 | 23 | 325 | 29.0 | 40.2 | 0.00 | 0.20 | 0.00 | 53 | 1003.5 |
| 20260504192402 | 23 | 289 | 32.2 | 48.3 | 0.00 | 0.23 | 0.00 | 52 | 1003.5 |
| 20260504191902 | 23 | 328 | 35.4 | 53.1 | 0.00 | 0.25 | 0.00 | 51 | 1003.6 |
| 20260504191402 | 23 | 329 | 32.2 | 48.3 | 0.00 | 0.25 | 0.00 | 54 | 1003.7 |
| 20260504190902 | 23 | 308 | 38.6 | 57.9 | 0.00 | 0.25 | 0.00 | 53 | 1003.6 |
| 20260504190403 | 23 | 311 | 35.4 | 56.3 | 0.00 | 0.25 | 0.00 | 52 | 1003.7 |
| 20260504185902 | 23 | 269 | 33.8 | 48.3 | 0.00 | 0.25 | 0.00 | 52 | 1003.8 |
| 20260504185402 | 23 | 324 | 35.4 | 56.3 | 0.00 | 0.25 | 0.00 | 52 | 1003.7 |
| 20260504184902 | 23 | 307 | 37.0 | 53.1 | 0.00 | 0.25 | 0.00 | 52 | 1003.6 |
| 20260504184402 | 23 | 329 | 30.6 | 45.1 | 0.00 | 0.25 | 0.00 | 53 | 1003.6 |
| 20260504183403 | 23 | 340 | 37.0 | 51.5 | 0.00 | 0.25 | 0.00 | 53 | 1003.7 |
| 20260504182903 | 23 | 335 | 27.4 | 41.8 | 0.00 | 0.25 | 0.00 | 55 | 1003.8 |
| 20260504182403 | 23 | 282 | 27.4 | 45.1 | 0.00 | 0.25 | 0.00 | 54 | 1003.7 |
| 20260504181902 | 23 | 342 | 33.8 | 49.9 | 0.00 | 0.25 | 0.00 | 53 | 1003.7 |
| 20260504181402 | 23 | 331 | 32.2 | 48.3 | 0.00 | 0.25 | 0.00 | 55 | 1003.7 |
| 20260504180902 | 23 | 336 | 30.6 | 48.3 | 0.00 | 0.25 | 0.00 | 55 | 1003.7 |
| 20260504180402 | 23 | 316 | 30.6 | 45.1 | 0.00 | 0.25 | 0.00 | 56 | 1003.8 |
| 20260504175902 | 23 | 338 | 33.8 | 53.1 | 0.00 | 0.25 | 0.00 | 56 | 1003.8 |
| 20260504175402 | 23 | 305 | 32.2 | 48.3 | 0.00 | 0.25 | 0.00 | 55 | 1003.7 |
| 20260504174902 | 23 | 321 | 29.0 | 45.1 | 0.00 | 0.25 | 0.00 | 56 | 1003.9 |
| 20260504174403 | 22 | 334 | 27.4 | 41.8 | 0.00 | 0.25 | 0.00 | 57 | 1003.7 |
| 20260504173902 | 22 | 297 | 29.0 | 49.9 | 0.00 | 0.25 | 0.00 | 58 | 1003.8 |
| 20260504173402 | 22 | 311 | 32.2 | 49.9 | 0.00 | 0.25 | 0.00 | 58 | 1003.8 |
| 20260504172902 | 22 | 313 | 27.4 | 48.3 | 0.00 | 0.25 | 0.00 | 59 | 1003.9 |
| 20260504172403 | 22 | 337 | 24.1 | 38.6 | 0.00 | 0.25 | 0.00 | 61 | 1004.0 |
| 20260504171903 | 22 | 336 | 32.2 | 41.8 | 0.00 | 0.25 | 0.00 | 59 | 1004.0 |
| 20260504171402 | 22 | 299 | 30.6 | 49.9 | 0.00 | 0.25 | 0.00 | 59 | 1004.0 |
| 20260504170902 | 22 | 343 | 29.0 | 46.7 | 0.00 | 0.25 | 0.00 | 60 | 1004.2 |
| 20260504170402 | 22 | 353 | 29.0 | 48.3 | 0.00 | 0.25 | 0.00 | 59 | 1004.3 |
| 20260504160403 | 21 | 352 | 22.5 | 33.8 | 0.00 | 0.25 | 0.00 | 63 | 1005.3 |
| 20260504150903 | 18 | 0 | 19.3 | 27.4 | 0.00 | 0.25 | 0.00 | 71 | 1005.9 |
| 20260504150403 | 18 | 9 | 19.3 | 27.4 | 0.00 | 0.25 | 0.00 | 71 | 1005.9 |
| 20260504140903 | 15 | 339 | 16.1 | 25.7 | 0.00 | 0.25 | 0.00 | 77 | 1006.4 |
| 20260504140403 | 15 | 347 | 17.7 | 25.7 | 0.00 | 0.25 | 0.00 | 77 | 1006.6 |
| 20260504130404 | 13 | 312 | 11.3 | 24.1 | 0.00 | 0.25 | 0.00 | 80 | 1006.9 |
| 20260504110403 | 9 | 216 | 4.8 | 8.0 | 0.00 | 0.25 | 0.00 | 82 | 1007.3 |
| 20260504100403 | 10 | 334 | 11.3 | 16.1 | 0.00 | 0.25 | 0.00 | 79 | 1007.3 |
| 20260504081903 | 10 | 334 | 11.3 | 19.3 | 0.00 | 0.25 | 0.00 | 78 | 1007.8 |
| 20260504081403 | 10 | 222 | 9.7 | 19.3 | 0.00 | 0.25 | 0.00 | 78 | 1007.8 |
| 20260504080904 | 10 | 265 | 9.7 | 16.1 | 0.00 | 0.25 | 0.00 | 78 | 1007.8 |
| 20260504080404 | 10 | 332 | 9.7 | 19.3 | 0.00 | 0.25 | 0.00 | 78 | 1007.9 |
| 20260504050401 | 10 | 309 | 8.0 | 16.1 | 0.00 | 0.25 | 0.00 | 79 | 1009.5 |
| 20260504045901 | 10 | 263 | 11.3 | 19.3 | 0.00 | 0.25 | 0.00 | 80 | 1009.6 |
| 20260504045401 | 10 | 235 | 9.7 | 14.5 | 0.00 | 0.25 | 0.00 | 81 | 1009.5 |
| 20260504044901 | 10 | 203 | 6.4 | 12.9 | 0.00 | 0.25 | 0.00 | 82 | 1009.6 |
| 20260504044402 | 9 | 193 | 6.4 | 11.3 | 0.00 | 0.25 | 0.00 | 83 | 1009.6 |
| 20260504043901 | 9 | 189 | 8.0 | 9.7 | 0.00 | 0.25 | 0.00 | 83 | 1009.6 |
| 20260504043401 | 9 | 186 | 8.0 | 9.7 | 0.00 | 0.25 | 0.00 | 83 | 1009.7 |
| 20260504042901 | 9 | 185 | 8.0 | 9.7 | 0.00 | 0.25 | 0.00 | 84 | 1009.8 |
| 20260504042402 | 9 | 187 | 6.4 | 8.0 | 0.00 | 0.25 | 0.00 | 83 | 1009.8 |
| 20260504041901 | 9 | 191 | 4.8 | 8.0 | 0.00 | 0.25 | 0.00 | 83 | 1009.9 |